Wind_Speed
26 16 5 4 11 24 37 50 58 70 82 86 87 86 95 95 94 91 84 80 72 66 62 59 55 50 46 41 37 36 31 29 24 25 24 23 26 29 33 32 30 37 34 35 34
33 21 14 5 5 12 22 38 49 57 63 70 81 83 90 94 92 92 85 79 73 69 61 58 55 51 47 43 39 37 33 32 26 27 25 25 26 24 24 29 30 28 32 33 35
40 24 14 11 9 6 13 15 25 37 45 62 79 85 87 93 90 90 85 79 74 69 62 57 54 52 48 45 42 38 37 34 31 28 28 28 26 25 26 28 26 28 31 34 37
47 29 19 13 7 5 7 8 12 16 30 52 75 88 87 90 90 88 83 79 74 68 62 58 56 53 50 46 42 40 39 36 34 30 31 29 27 27 29 26 26 28 32 36 38
57 41 27 17 12 9 16 19 23 23 35 56 75 87 85 88 87 84 80 77 72 67 62 58 53 52 49 45 42 39 37 36 35 34 34 31 28 28 28 27 28 33 36 38 40
66 55 41 31 25 23 26 28 34 35 49 62 75 84 86 86 83 80 76 73 68 65 61 54 50 49 46 43 42 41 38 37 37 35 36 33 30 28 28 29 33 35 37 41 44
63 59 53 45 38 35 34 36 41 47 57 65 75 82 83 81 76 73 72 67 65 61 59 53 47 47 45 44 42 42 41 41 40 37 37 35 31 31 31 32 35 36 41 44 46
58 55 51 50 46 43 41 43 46 55 59 68 75 77 78 74 71 69 66 63 60 57 56 50 44 43 44 43 42 41 41 41 41 39 38 35 35 33 37 37 37 41 47 45 48
51 50 47 46 44 42 41 43 45 53 61 66 69 73 71 68 66 64 61 59 56 55 51 47 43 44 43 43 39 37 42 42 41 39 37 38 35 38 40 40 41 44 50 50 48
44 44 42 39 37 36 35 36 39 50 56 60 64 67 64 61 59 58 56 55 54 51 50 48 46 45 41 42 40 43 44 40 39 41 41 40 39 40 43 42 44 48 52 52 49
40 38 37 35 32 29 29 29 33 41 51 53 56 58 58 57 56 55 54 53 52 50 49 47 46 43 45 44 44 46 44 41 43 43 45 42 44 40 45 46 49 52 54 53 49
40 36 31 30 27 25 23 25 26 32 40 47 51 54 54 53 52 52 52 51 49 49 47 47 47 46 46 46 47 47 45 45 45 47 46 46 47 44 49 51 52 55 57 53 50
36 34 30 25 24 20 19 18 21 24 30 38 46 50 50 51 50 50 50 49 49 49 49 48 48 48 48 48 49 49 48 49 49 50 48 51 49 51 54 54 57 60 56 52 48
33 30 28 25 22 19 15 13 14 18 25 29 35 41 47 51 51 51 50 50 50 49 48 47 47 49 49 51 51 52 52 53 53 52 51 56 52 56 60 63 61 60 56 49 44
31 27 25 23 21 17 15 13 10 12 16 21 28 34 38 41 43 44 45 45 46 45 45 46 49 51 52 52 53 54 55 57 56 56 55 59 60 55 63 69 63 59 54 48 47
29 22 21 20 19 16 14 11 10 10 12 19 23 27 31 34 38 41 42 42 44 45 48 51 52 52 53 54 56 58 60 61 58 60 58 62 64 61 66 67 60 54 52 51 53
29 27 19 17 12 12 11 8 6 6 9 13 18 24 27 32 36 39 41 43 44 47 49 51 53 54 55 57 58 60 62 62 62 64 64 65 67 67 65 60 56 57 57 58 60
25 25 23 21 14 10 5 5 5 4 4 7 14 21 26 30 35 40 43 45 46 47 51 52 54 56 57 58 59 61 63 65 63 66 65 69 67 64 61 60 60 63 64 65 67
21 23 25 23 21 16 12 11 9 8 9 8 12 16 20 26 32 36 40 45 48 50 51 52 54 56 59 60 62 65 67 68 70 67 63 63 60 59 62 66 69 70 70 70 71
30 23 26 25 25 24 25 21 20 19 19 18 19 19 20 25 28 32 37 43 46 48 50 52 53 60 62 63 64 65 67 66 62 58 58 60 63 65 69 73 72 72 71 74 78
36 34 30 28 28 30 31 30 26 23 23 22 25 28 29 29 30 30 32 37 40 43 46 48 48 52 54 56 55 58 60 61 62 64 63 64 67 68 69 72 74 75 74 77 82
42 42 40 36 33 35 35 35 33 34 34 32 32 29 29 34 38 37 39 41 42 42 44 45 45 48 50 53 55 56 59 60 60 62 64 68 67 72 76 77 77 78 80 83 90
42 47 46 45 40 36 40 41 40 40 39 36 37 38 40 38 36 39 43 46 48 50 51 52 52 55 55 58 59 61 63 66 66 68 70 73 74 79 82 82 78 80 87 90 90
45 48 52 51 52 48 43 43 44 47 44 43 43 43 45 45 45 44 47 47 47 49 52 54 56 60 62 64 65 66 69 70 73 71 73 69 75 82 84 84 83 83 84 85 87
55 47 56 54 56 59 53 51 47 48 51 50 49 50 48 48 49 48 47 50 51 55 57 57 56 56 57 60 61 59 58 62 65 66 68 68 72 80 82 85 89 89 93 97 97
60 60 57 61 63 65 61 62 59 55 52 55 58 58 54 54 49 49 51 56 58 60 61 61 59 62 63 62 62 63 70 73 74 76 77 79 79 85 88 91 95 100 104 105 108
71 66 66 63 68 67 66 66 67 63 61 57 60 59 61 60 62 65 60 59 58 60 62 64 69 71 68 68 70 68 71 74 80 82 83 87 89 91 94 96 102 107 108 111 114
Wind_Direction
26 29 11 307 205 195 191 192 197 201 204 201 200 197 199 201 203 204 205 208 212 215 216 220 225 229 233 235 239 242 245 250 256 262 271 276 273 268 266 273 281 286 294 291 288
27 26 27 2 345 216 201 199 204 208 210 196 197 195 195 198 198 199 203 207 210 213 214 218 223 227 232 235 238 242 245 249 252 261 269 276 277 276 278 281 286 289 291 287 285
28 28 24 37 60 93 203 206 218 219 210 191 190 192 191 194 195 197 201 204 208 212 215 217 221 227 231 235 238 243 246 251 249 261 269 275 279 278 286 283 286 288 293 289 284
31 32 35 32 60 116 142 145 148 183 181 184 183 187 188 190 192 195 198 201 207 210 213 217 222 226 229 233 237 244 249 249 252 265 269 272 278 282 286 285 282 287 293 292 290
36 40 47 50 84 141 142 141 136 157 171 174 176 182 185 186 189 193 196 200 205 209 212 217 221 227 230 234 238 243 248 249 256 264 269 271 278 281 286 285 286 293 295 292 292
34 41 53 70 83 106 122 139 147 152 154 166 170 178 180 182 188 191 195 199 204 208 213 218 222 228 233 237 241 245 248 253 258 265 269 272 279 284 285 285 292 295 296 296 295
36 43 52 65 80 96 111 127 135 144 152 157 167 173 177 181 185 191 195 199 204 209 215 219 224 230 235 239 243 248 251 256 262 268 272 272 279 281 286 290 292 299 302 297 295
39 46 52 60 72 90 101 118 128 138 148 158 166 172 175 180 186 191 195 200 205 210 216 221 227 233 237 242 248 253 256 261 267 271 270 272 279 283 287 288 293 295 301 297 295
39 45 54 61 70 83 94 115 125 141 150 161 167 171 176 181 187 192 197 201 207 211 216 221 227 234 241 247 251 245 260 265 268 270 270 274 277 283 286 286 292 296 301 298 295
46 45 52 64 73 82 98 109 129 146 154 162 168 173 178 184 189 194 198 203 207 212 217 223 229 234 236 245 245 251 261 261 268 269 270 276 279 283 287 286 292 298 300 297 296
44 51 50 58 73 85 94 113 133 147 160 165 170 176 182 187 192 196 201 206 210 215 219 224 232 232 240 244 245 252 259 259 264 267 272 278 281 282 285 289 293 297 300 296 294
43 49 58 56 67 78 99 118 131 150 165 174 179 183 188 193 197 200 206 210 214 219 224 230 236 238 240 244 247 256 255 262 262 266 273 278 281 283 289 289 293 298 298 293 290
38 46 53 64 67 76 91 111 135 150 163 178 187 191 195 199 203 207 212 216 220 225 229 233 235 236 241 242 247 256 257 262 265 270 273 279 282 284 287 290 293 297 293 288 284
26 38 47 59 67 80 88 109 126 149 165 177 186 196 202 207 209 213 215 219 224 228 228 229 231 234 239 243 250 254 259 264 267 271 275 279 281 284 289 293 293 294 289 285 281
8 20 36 50 61 75 87 106 132 161 172 182 186 190 197 203 207 212 216 218 220 221 223 227 232 235 239 245 251 256 261 265 269 273 276 280 282 287 290 291 291 289 285 281 278
352 7 16 30 46 51 70 98 120 149 182 193 196 200 204 205 208 210 210 216 217 223 228 230 234 239 245 249 253 257 261 265 272 276 278 282 288 289 287 287 286 283 281 280 280
330 336 344 350 19 31 43 50 85 132 179 194 206 209 212 212 214 215 217 220 226 228 232 235 240 245 249 253 257 260 264 269 273 277 281 284 284 284 280 282 280 280 280 281 281
319 322 329 333 327 332 353 357 13 5 227 213 220 222 222 224 224 223 224 227 232 234 237 240 245 249 252 256 260 263 266 271 277 278 278 278 279 279 280 279 278 279 281 282 283
307 296 313 311 314 315 298 288 283 275 271 271 252 236 240 242 240 238 238 237 238 241 243 248 251 255 257 261 265 268 271 274 275 274 276 276 277 277 278 279 280 280 282 284 284
283 287 287 292 295 299 300 300 285 283 274 266 259 257 257 250 245 245 247 249 252 253 255 255 255 257 260 262 264 265 268 270 273 273 273 275 276 276 277 279 280 281 283 285 285
279 274 276 281 276 284 289 291 290 287 279 269 269 265 260 256 255 255 254 255 257 261 263 263 264 263 265 266 267 268 269 270 272 274 274 274 276 276 276 278 281 285 288 288 285
281 275 271 268 274 275 276 283 287 286 289 285 277 271 266 265 257 255 257 260 262 261 260 260 259 261 264 266 267 269 270 271 272 273 274 275 276 278 277 278 281 282 282 282 286
273 274 271 266 264 268 270 273 275 282 281 280 284 285 282 276 269 263 260 260 259 261 263 266 266 266 267 269 270 271 272 274 275 275 276 276 278 276 278 279 282 284 284 283 283
265 267 269 268 263 262 264 268 265 274 274 276 276 284 282 282 284 283 277 270 267 268 267 265 264 265 267 265 265 268 270 272 273 276 275 281 280 282 281 283 282 282 283 283 285
259 265 262 265 269 267 261 263 263 266 264 269 272 276 279 280 281 282 279 280 283 281 278 276 277 273 272 273 273 270 273 278 278 276 277 277 280 280 283 283 284 285 285 285 287
258 259 259 257 264 266 264 257 258 262 263 260 265 268 275 272 270 269 272 277 280 279 278 277 276 277 276 278 280 281 282 284 282 279 277 278 283 285 285 285 286 287 288 289 290
261 257 257 268 258 262 264 258 256 258 261 263 259 260 268 273 268 273 276 277 274 271 268 271 273 274 272 272 277 279 279 282 282 283 284 285 286 287 287 288 288 289 290 292 291
Height
10479 10475 10471 10469 10469 10471 10473 10478 10488 10499 10514 10544 10573 10603 10628 10654 10679 10702 10717 10728 10744 10756 10765 10774 10783 10790 10797 10803 10809 10813 10817 10821 10823 10825 10826 10826 10827 10827 10827 10827 10827 10826 10824 10823 10821
10484 10479 10476 10477 10477 10481 10482 10489 10496 10506 10520 10551 10574 10601 10626 10651 10675 10693 10711 10726 10740 10750 10762 10770 10778 10786 10792 10799 10804 10808 10812 10815 10819 10820 10821 10821 10822 10821 10821 10821 10820 10820 10818 10816 10814
10494 10487 10484 10482 10482 10485 10490 10498 10506 10512 10524 10548 10572 10598 10622 10647 10672 10690 10707 10722 10734 10747 10757 10766 10774 10781 10788 10794 10799 10804 10807 10811 10813 10815 10816 10817 10816 10816 10816 10815 10814 10814 10812 10809 10807
10508 10497 10490 10489 10489 10491 10495 10503 10510 10520 10534 10551 10572 10598 10623 10647 10669 10687 10704 10717 10730 10743 10753 10762 10769 10777 10784 10790 10795 10799 10802 10806 10807 10810 10811 10812 10811 10811 10810 10810 10809 10808 10806 10803 10801
10525 10513 10502 10496 10497 10497 10501 10508 10516 10527 10537 10553 10575 10603 10629 10652 10670 10687 10702 10715 10728 10739 10750 10757 10765 10772 10779 10785 10790 10793 10797 10800 10802 10804 10806 10806 10806 10805 10805 10804 10803 10801 10800 10797 10795
10538 10528 10520 10514 10508 10507 10509 10516 10521 10534 10546 10565 10587 10613 10634 10654 10673 10687 10701 10716 10727 10738 10747 10754 10760 10767 10774 10780 10784 10788 10791 10794 10796 10799 10800 10801 10800 10799 10799 10798 10796 10795 10794 10791 10788
10558 10546 10537 10530 10526 10524 10526 10530 10537 10548 10563 10580 10601 10622 10643 10660 10676 10690 10703 10715 10726 10736 10745 10751 10756 10763 10769 10774 10778 10782 10785 10788 10790 10793 10794 10795 10793 10792 10791 10791 10789 10787 10785 10783 10780
10583 10572 10563 10555 10550 10547 10548 10552 10559 10569 10582 10599 10617 10634 10651 10667 10681 10693 10705 10715 10725 10735 10743 10748 10752 10758 10764 10768 10773 10776 10780 10782 10784 10786 10788 10788 10786 10786 10784 10783 10782 10780 10776 10775 10771
10603 10595 10588 10583 10579 10576 10575 10578 10584 10593 10603 10617 10632 10647 10660 10672 10685 10695 10706 10715 10724 10732 10739 10745 10750 10755 10759 10763 10767 10770 10773 10776 10778 10779 10780 10780 10780 10776 10777 10774 10773 10770 10768 10764 10761
10618 10614 10609 10605 10603 10602 10601 10604 10608 10614 10623 10634 10646 10657 10670 10679 10690 10699 10708 10715 10723 10731 10737 10742 10747 10751 10755 10759 10762 10764 10767 10769 10772 10770 10772 10772 10772 10771 10767 10766 10763 10761 10758 10753 10751
10630 10627 10624 10622 10621 10621 10621 10623 10627 10634 10641 10649 10657 10666 10675 10684 10692 10700 10708 10714 10722 10728 10733 10739 10744 10746 10749 10753 10756 10758 10760 10763 10763 10763 10763 10763 10762 10763 10758 10756 10753 10751 10748 10745 10742
10643 10639 10637 10636 10634 10634 10636 10638 10641 10645 10652 10659 10666 10673 10680 10687 10694 10700 10707 10714 10720 10725 10730 10735 10738 10741 10744 10747 10750 10752 10754 10756 10756 10755 10755 10754 10753 10753 10749 10745 10744 10742 10737 10734 10732
10655 10651 10647 10645 10646 10645 10647 10649 10651 10655 10659 10664 10670 10676 10683 10689 10695 10701 10707 10712 10717 10721 10726 10729 10732 10735 10738 10741 10744 10745 10746 10747 10748 10746 10747 10743 10745 10742 10737 10735 10733 10731 10727 10725 10722
10666 10661 10657 10655 10653 10653 10655 10657 10659 10662 10665 10669 10672 10678 10683 10687 10692 10697 10702 10707 10711 10716 10720 10724 10727 10730 10733 10735 10736 10736 10738 10738 10737 10737 10737 10731 10737 10733 10725 10722 10721 10719 10717 10714 10712
10671 10669 10666 10662 10661 10660 10660 10662 10664 10667 10669 10673 10676 10679 10683 10687 10692 10696 10700 10705 10708 10712 10715 10719 10722 10724 10725 10726 10728 10728 10728 10728 10727 10727 10727 10723 10721 10725 10717 10709 10709 10705 10704 10703 10701
10674 10672 10671 10668 10666 10666 10666 10666 10667 10670 10673 10675 10678 10681 10684 10687 10690 10693 10696 10700 10704 10707 10709 10712 10714 10716 10718 10718 10719 10719 10718 10717 10717 10716 10716 10713 10709 10711 10704 10697 10696 10693 10692 10691 10689
10674 10673 10673 10672 10670 10668 10669 10669 10670 10671 10673 10675 10678 10680 10682 10685 10688 10690 10693 10696 10698 10701 10703 10706 10708 10708 10708 10709 10709 10709 10708 10708 10708 10705 10704 10702 10698 10695 10688 10687 10685 10681 10680 10679 10676
10674 10672 10671 10671 10671 10671 10670 10670 10670 10672 10672 10673 10675 10677 10679 10682 10684 10686 10688 10690 10692 10694 10696 10698 10699 10699 10699 10699 10699 10698 10697 10695 10695 10694 10694 10688 10684 10679 10675 10671 10670 10668 10667 10664 10661
10671 10669 10669 10670 10668 10669 10670 10670 10670 10670 10670 10671 10672 10673 10674 10676 10678 10679 10681 10683 10684 10686 10687 10688 10689 10689 10689 10688 10688 10687 10684 10684 10681 10680 10680 10675 10672 10669 10663 10657 10654 10653 10652 10648 10643
10665 10665 10664 10664 10665 10665 10665 10666 10667 10667 10668 10668 10668 10669 10669 10669 10670 10671 10673 10674 10674 10674 10675 10676 10678 10675 10674 10674 10673 10672 10670 10667 10666 10667 10666 10663 10658 10655 10648 10639 10637 10636 10637 10631 10623
10656 10656 10658 10658 10658 10658 10658 10659 10660 10661 10662 10663 10663 10663 10663 10662 10664 10664 10665 10665 10665 10666 10667 10667 10667 10665 10664 10661 10661 10659 10656 10654 10653 10651 10651 10651 10643 10638 10634 10629 10624 10623 10623 10612 10599
10646 10647 10646 10648 10650 10650 10650 10650 10650 10650 10651 10652 10653 10654 10654 10654 10654 10655 10655 10654 10655 10655 10654 10654 10655 10652 10652 10649 10649 10645 10642 10640 10639 10637 10634 10629 10632 10619 10613 10610 10612 10608 10602 10594 10581
10635 10635 10636 10637 10639 10639 10639 10641 10641 10641 10641 10641 10641 10640 10640 10641 10643 10643 10643 10642 10643 10642 10642 10641 10643 10639 10640 10636 10634 10632 10629 10626 10625 10620 10618 10612 10610 10599 10594 10595 10597 10584 10574 10571 10567
10622 10623 10622 10625 10626 10627 10628 10629 10629 10628 10630 10630 10630 10628 10627 10627 10628 10629 10629 10628 10628 10629 10629 10626 10626 10624 10623 10622 10620 10617 10613 10608 10606 10604 10596 10596 10586 10576 10571 10574 10572 10568 10560 10549 10544
10605 10608 10606 10612 10612 10612 10615 10616 10616 10616 10617 10616 10617 10615 10616 10617 10616 10615 10615 10612 10614 10612 10611 10612 10611 10608 10605 10602 10602 10604 10599 10594 10588 10583 10580 10577 10571 10557 10553 10547 10542 10543 10534 10528 10522
10585 10589 10589 10594 10595 10596 10600 10599 10598 10601 10603 10604 10603 10601 10602 10601 10602 10600 10601 10601 10600 10598 10596 10595 10595 10590 10592 10586 10585 10585 10580 10574 10571 10567 10566 10559 10557 10545 10537 10529 10521 10511 10503 10501 10496
10564 10567 10571 10577 10575 10578 10582 10582 10582 10583 10584 10588 10584 10588 10587 10586 10586 10585 10587 10584 10585 10583 10579 10579 10577 10574 10576 10571 10568 10572 10561 10557 10551 10543 10538 10533 10530 10524 10514 10510 10500 10486 10482 10478 10467